Theta_e
301 301 301 301 301 302 302 302 303 303 303 304 304 304 305 304 302 295 290 290 289 283 284 288 290 286 285 282 279 282 283 283 281 278 275 272 272 273 271 268 263 266 265 264 268 263 260 277 279 270 273 279 281 282
300 300 300 300 301 301 301 301 302 302 302 302 303 305 305 304 303 297 289 292 291 287 286 289 290 292 291 290 284 283 283 283 281 277 275 275 276 272 275 267 276 267 269 267 268 265 271 276 275 280 281 281 282 282
299 299 300 300 300 300 301 301 301 301 302 302 303 304 304 304 303 298 292 291 288 284 285 286 285 289 294 293 292 285 284 287 284 284 278 277 277 275 270 270 275 278 278 273 273 274 276 281 282 283 284 283 284 284
299 298 298 299 300 300 300 300 300 301 301 302 302 303 304 303 302 299 293 291 287 283 277 281 290 286 291 294 292 291 289 287 285 283 278 276 276 280 274 276 275 277 279 277 277 280 281 282 283 284 285 285 285 284
298 298 298 298 298 299 299 299 299 300 300 301 301 302 303 302 300 294 290 290 290 287 279 279 286 289 290 290 291 289 287 284 281 278 276 277 278 278 277 277 274 279 278 275 272 280 281 281 283 284 284 284 284 284
299 298 298 297 297 298 298 299 299 299 300 300 300 301 301 301 295 287 283 290 292 288 281 277 285 286 288 289 288 287 286 283 281 279 278 279 282 279 275 275 279 281 282 282 280 283 284 284 285 285 284 284 285 285
299 299 298 298 297 297 298 298 299 299 299 300 300 301 301 301 291 285 282 289 295 291 282 277 279 285 287 287 286 286 285 282 282 279 277 278 279 281 275 275 281 282 284 284 284 284 282 283 282 286 286 287 289 286
300 300 299 298 297 297 297 297 298 299 299 299 299 300 299 300 296 290 288 297 293 288 286 277 279 280 286 282 281 284 283 283 281 280 278 278 279 279 276 281 282 283 284 284 285 285 284 285 284 284 285 286 285 284
301 301 300 299 298 297 297 297 298 299 299 299 299 297 291 288 284 290 298 292 289 287 279 281 278 274 284 282 282 282 282 278 282 278 279 279 277 276 281 281 282 283 284 284 285 284 284 283 284 284 285 285 284 284
300 301 300 300 299 298 297 297 298 299 300 296 288 283 277 286 297 295 286 278 279 279 283 280 281 277 282 280 279 280 280 277 276 280 280 276 278 283 283 284 285 285 285 286 283 282 282 282 283 283 284 285 285 285
298 299 300 301 300 299 298 297 297 299 295 285 283 282 287 295 289 282 276 276 276 276 279 282 281 279 283 279 280 280 278 279 276 279 279 277 277 281 284 285 285 286 286 287 288 287 286 284 284 283 284 285 285 285
294 295 296 298 301 299 298 297 297 293 290 291 291 292 290 286 280 279 275 278 277 276 278 280 282 281 281 282 280 279 279 279 276 280 276 276 280 284 284 284 285 286 286 286 287 285 285 286 286 285 285 285 285 285
293 293 294 295 297 300 298 297 296 297 296 293 289 286 283 280 272 276 268 276 275 279 280 281 280 282 281 282 279 279 278 277 280 273 276 279 282 284 284 284 285 286 286 286 285 286 286 285 286 286 285 286 286 286
292 292 295 294 295 297 298 296 295 295 291 285 282 273 279 275 276 277 278 279 282 281 281 281 280 280 280 280 280 278 279 279 273 272 275 278 281 284 285 284 284 284 285 285 285 285 285 285 285 286 286 287 285 285
292 292 294 292 294 295 298 295 295 294 289 283 283 274 277 280 281 281 282 282 284 285 284 282 281 281 280 279 279 279 276 274 276 275 278 281 282 283 284 283 283 284 284 285 285 285 285 285 285 285 286 286 286 286
292 293 290 292 292 295 296 294 292 292 288 285 283 280 282 279 279 279 281 283 287 286 286 285 281 278 279 279 278 276 276 275 278 278 280 281 283 285 284 284 285 285 285 286 285 286 286 285 286 286 286 286 285 285
290 283 291 292 292 296 294 290 289 284 283 281 279 282 281 280 279 281 283 284 289 287 283 283 279 280 279 277 277 279 277 279 280 280 281 282 283 284 286 285 285 285 285 285 285 286 286 287 286 285 285 286 286 287
283 285 291 292 291 290 288 288 285 282 279 280 278 278 279 283 282 283 286 287 287 286 285 283 284 280 277 277 277 280 281 281 281 282 283 284 285 286 287 285 285 285 285 286 286 286 286 285 286 286 287 287 286 287
286 286 291 292 289 284 282 283 285 279 279 279 279 280 281 281 284 287 287 289 290 290 287 284 282 280 280 281 282 283 282 282 281 283 284 286 286 287 287 286 285 285 285 285 285 286 287 287 288 288 288 287 287 287
291 291 291 291 289 281 278 280 287 281 278 279 280 279 280 280 283 285 286 287 287 287 284 283 284 285 282 284 286 286 285 284 283 282 283 285 286 286 286 287 286 286 285 285 285 283 285 284 285 286 286 286 286 286
288 286 289 285 281 278 278 278 280 281 279 278 281 279 279 280 280 281 282 286 284 284 282 285 286 289 291 290 291 289 288 287 286 286 286 285 287 287 286 286 287 285 284 284 284 284 283 286 288 287 287 286 287 287
285 289 284 281 278 275 278 280 279 282 279 279 280 281 280 278 279 280 281 281 281 283 285 286 287 289 290 290 292 293 292 290 289 288 285 284 285 286 286 286 285 285 285 285 285 285 285 287 287 285 285 286 284 286
286 283 277 277 274 267 271 280 276 276 274 275 276 275 275 276 279 283 279 282 282 286 287 287 288 290 290 291 293 293 293 292 291 291 290 288 289 288 287 286 285 285 285 286 286 286 285 284 284 284 284 284 283 283
286 280 271 269 274 267 271 275 276 276 276 275 274 273 275 276 280 277 276 279 283 287 287 287 288 287 288 289 289 291 293 294 293 293 293 292 291 289 289 290 289 288 289 289 287 287 286 285 283 284 283 283 282 283
271 269 273 268 269 272 270 268 271 272 269 272 272 272 274 277 274 275 275 278 281 282 284 287 288 288 286 287 289 290 293 293 292 291 293 294 291 291 290 287 288 289 289 286 285 285 285 284 284 285 285 284 285 283
264 266 268 267 265 266 268 264 264 269 271 270 272 274 276 274 273 273 278 280 282 284 285 286 287 287 287 289 288 289 290 294 294 292 293 294 293 290 289 288 288 288 288 290 289 286 286 286 285 284 285 285 284 285
265 263 270 276 275 275 273 274 275 273 269 266 272 272 271 268 269 276 281 283 283 286 288 290 290 289 289 290 291 293 294 294 294 293 295 296 296 294 294 291 288 288 291 290 290 288 287 287 286 286 286 287 286 286
269 270 265 272 272 274 269 270 269 267 270 273 272 268 265 268 270 276 279 282 285 287 287 288 291 292 291 291 292 292 289 290 292 291 290 289 289 291 292 293 292 287 291 290 289 288 287 287 287 287 287 287 287 285
271 273 274 267 269 271 270 270 271 273 275 274 270 270 272 276 279 279 280 282 283 282 282 284 286 288 288 290 287 288 289 289 288 287 287 287 289 290 289 289 289 289 288 288 287 288 288 288 287 287 287 286 286 286
269 276 270 266 263 266 272 275 274 277 277 277 277 276 276 277 279 281 281 281 281 281 282 282 284 286 286 286 287 287 286 287 289 289 287 287 289 289 287 288 289 289 289 288 288 285 283 284 284 285 285 285 285 284
275 273 270 272 271 274 276 277 277 277 276 275 276 274 274 276 279 281 281 282 282 283 282 282 283 286 285 286 286 286 286 286 287 288 289 290 287 286 287 288 288 287 286 286 286 286 286 285 286 286 285 285 285 286
266 265 265 267 271 275 275 270 272 272 273 272 272 274 274 274 273 277 281 282 282 281 283 284 284 285 288 287 288 288 287 286 285 287 288 288 288 288 288 287 286 285 286 286 286 286 286 286 286 286 286 285 285 285
261 259 265 268 262 263 266 273 271 268 268 272 273 274 274 274 272 277 281 286 285 284 285 286 287 287 287 287 287 287 287 288 289 287 286 286 287 286 286 285 285 285 286 286 286 286 285 286 286 286 285 285 284 283
Wind_Speed
13 13 14 14 15 16 16 16 16 16 16 16 15 12 11 10 7 6 0 3 5 4 3 4 5 5 2 2 4 4 5 3 3 2 3 3 2 3 2 5 5 4 3 3 2 2 6 3 2 7 9 3 3 4
12 12 13 13 14 15 15 16 16 16 16 16 15 14 13 13 8 5 4 3 2 6 5 1 2 4 7 8 6 1 4 4 5 4 1 3 2 1 3 3 2 4 7 5 8 8 7 6 7 5 4 4 3 2
11 11 12 13 13 13 13 14 15 16 16 16 16 15 16 15 13 8 3 3 5 4 5 4 0 1 1 4 5 5 2 3 3 3 4 2 2 4 3 5 3 4 5 3 3 5 6 6 5 5 4 5 4 4
10 10 11 11 12 13 13 13 14 14 15 16 15 15 14 14 14 9 4 2 5 4 5 7 3 2 1 3 3 3 6 4 5 2 3 3 2 4 3 4 4 6 6 5 5 6 4 6 6 5 4 3 3 3
8 9 10 11 11 11 12 12 13 13 13 13 14 15 14 12 8 7 3 3 1 6 4 4 5 3 3 2 5 5 5 4 2 2 3 3 2 3 1 0 5 7 8 6 7 7 6 5 5 4 4 4 4 5
6 7 8 9 9 10 11 11 12 13 12 12 12 12 13 12 6 5 6 3 3 2 5 1 4 3 1 3 4 4 3 3 3 5 3 3 3 3 3 4 7 7 7 8 5 6 8 6 5 4 5 5 4 6
4 5 6 7 8 9 10 11 11 11 11 12 12 12 11 9 3 4 6 4 3 2 4 3 4 3 2 3 3 2 3 1 3 2 2 3 3 4 2 5 7 13 12 8 5 8 3 5 6 8 6 5 7 5
4 4 4 4 6 7 8 9 10 11 12 12 12 11 9 2 5 3 2 4 2 4 3 2 4 4 4 2 1 1 1 2 1 2 1 3 1 1 7 10 5 10 10 9 10 8 7 7 6 5 5 5 6 6
6 6 6 6 5 5 7 8 10 11 11 12 14 7 3 5 3 3 6 3 2 4 3 3 4 6 1 1 1 2 2 1 1 3 4 4 3 9 12 9 11 15 15 13 11 10 7 7 9 8 7 7 7 7
13 8 6 6 7 7 7 8 10 12 13 9 6 6 5 3 7 5 7 5 6 4 2 4 2 4 4 1 1 2 1 3 2 5 3 3 8 13 10 11 13 17 13 15 11 10 9 8 9 8 9 8 8 7
19 19 13 8 6 5 6 7 10 12 7 5 4 0 4 7 4 4 2 2 2 3 4 4 5 4 3 5 4 3 3 1 2 4 4 4 8 7 9 16 11 16 17 18 19 11 10 7 9 8 7 8 7 8
19 19 18 18 8 4 4 6 9 4 1 3 3 3 3 4 4 3 3 3 4 6 3 4 5 5 2 3 4 3 4 2 6 2 1 6 9 7 5 10 12 16 19 14 13 11 11 12 10 10 9 9 9 9
19 21 18 17 18 7 3 4 7 7 5 2 2 3 3 2 2 6 6 4 4 4 4 3 2 3 1 2 3 3 5 6 2 0 7 9 4 4 6 6 10 13 15 14 10 10 10 11 9 10 11 8 9 8
18 18 13 23 20 20 8 5 6 3 3 2 1 6 6 6 7 8 6 4 4 3 4 3 2 2 2 3 4 4 4 3 2 5 10 6 6 7 6 6 10 13 15 15 14 10 11 10 10 9 9 9 8 8
20 17 8 17 23 22 8 10 7 3 1 3 3 8 9 6 4 4 4 2 3 3 4 4 2 2 2 3 4 2 2 6 7 8 6 5 4 6 6 8 9 12 13 13 11 11 12 10 10 10 9 8 9 8
18 7 9 21 24 23 16 12 4 3 2 4 8 6 3 3 4 2 3 4 3 4 2 1 3 1 7 5 5 10 6 8 7 6 5 3 4 4 6 7 10 10 12 12 11 12 11 11 13 12 7 8 9 9
10 3 14 19 23 5 10 3 2 6 6 6 7 3 3 2 4 3 3 3 3 5 4 4 7 13 1 3 5 6 9 6 5 5 3 5 6 5 6 6 7 8 10 12 11 11 13 11 7 7 9 9 10 11
2 5 12 15 11 6 2 1 2 6 9 7 6 1 3 2 4 5 3 2 3 2 1 4 2 5 7 7 5 6 6 5 4 5 4 5 6 7 5 8 7 9 10 10 12 12 10 8 11 11 12 10 8 8
5 5 11 12 6 1 3 3 4 7 8 3 3 2 4 4 4 4 6 4 5 3 2 2 8 8 6 4 5 5 4 4 4 4 5 5 6 6 6 6 6 7 8 8 9 9 10 13 12 9 9 6 9 8
14 12 11 9 2 1 4 4 3 6 5 4 2 4 5 5 6 9 10 10 6 4 7 9 17 11 4 5 4 4 3 3 2 4 5 5 4 5 6 6 5 6 5 6 6 6 4 4 5 6 7 8 8 9
6 3 4 3 2 3 4 5 5 4 4 4 3 4 5 2 6 9 10 11 11 13 15 14 14 15 13 9 11 4 5 4 5 5 5 4 3 4 3 4 4 3 4 5 7 7 7 9 9 7 8 9 9 9
3 5 1 1 2 4 6 6 6 3 5 9 10 9 9 6 7 6 5 9 14 15 14 12 12 14 15 16 14 16 13 7 6 4 6 3 4 4 5 5 4 5 6 7 7 8 8 9 7 6 6 9 7 7
4 2 0 3 4 3 9 3 6 5 6 5 4 13 12 14 14 11 13 10 13 12 14 16 19 20 20 20 17 16 13 12 11 11 10 8 8 6 5 5 6 7 6 7 5 6 7 7 6 6 6 5 5 5
7 3 4 5 8 7 3 5 4 4 5 12 15 22 21 15 12 12 16 17 15 12 12 18 15 14 15 20 17 17 17 15 15 13 11 12 12 10 9 10 7 8 9 6 5 6 5 6 6 5 6 6 6 7
2 7 5 8 4 5 6 5 8 10 18 20 23 19 11 8 14 18 20 15 16 16 17 16 16 15 15 16 14 15 18 13 14 15 14 13 12 11 10 6 8 9 6 5 5 6 7 5 5 7 8 8 10 10
6 7 10 8 5 6 7 5 5 12 13 15 10 9 4 10 14 13 8 10 13 12 12 13 14 14 14 15 16 14 15 11 11 13 13 12 10 10 12 12 10 8 7 9 8 9 11 9 9 11 10 11 13 11
8 9 7 7 5 8 9 10 13 13 11 6 7 11 10 13 18 13 8 8 8 11 13 14 15 14 14 14 13 13 12 8 12 12 11 13 13 12 14 13 12 7 6 10 10 12 12 12 11 11 12 9 10 11
9 6 12 11 9 9 13 16 15 12 13 10 10 21 10 8 18 17 17 17 12 12 13 14 15 13 13 12 10 10 5 5 7 5 4 4 4 5 9 10 7 8 7 8 9 9 9 10 11 12 11 11 9 8
7 5 2 12 9 6 7 12 14 16 15 14 17 19 22 16 15 16 18 15 15 14 14 15 14 12 10 8 6 5 7 6 8 14 16 12 11 9 6 6 5 4 5 6 10 12 13 11 10 9 10 8 5 5
8 7 5 5 4 9 14 9 15 16 13 13 13 15 18 18 18 14 14 13 13 14 15 13 14 11 12 10 11 9 3 6 8 11 10 11 10 5 5 7 9 10 9 8 9 4 6 4 4 4 6 5 5 6
3 1 3 6 12 18 16 12 11 14 16 16 14 15 21 20 20 16 15 17 15 14 14 15 16 13 11 11 9 9 6 5 8 10 10 9 4 4 5 6 7 4 5 6 7 8 7 6 7 8 9 9 9 8
3 6 5 10 17 14 7 6 9 9 12 13 19 16 17 14 23 21 12 14 15 16 19 16 14 15 12 10 8 7 5 4 2 8 15 10 8 8 7 6 4 5 6 7 7 7 9 10 9 10 10 11 10 10
3 2 2 5 5 5 5 3 5 7 7 10 15 17 16 12 15 8 4 9 12 13 13 12 11 10 11 10 9 7 10 10 12 9 7 8 7 4 5 5 5 6 8 7 7 7 10 11 9 9 9 9 10 9
Wind_Direction
51 47 44 40 40 37 34 27 22 25 23 19 18 20 30 38 61 83 185 27 112 113 273 201 163 138 109 115 147 225 53 338 52 96 134 227 173 235 67 211 186 173 132 218 80 53 293 183 139 156 217 265 243 295
46 42 42 41 40 39 36 34 25 18 19 20 16 15 25 31 48 89 62 346 40 92 196 288 270 173 178 182 136 147 180 169 193 92 186 122 183 92 186 271 181 282 180 189 169 214 231 228 206 230 187 226 273 278
50 43 35 36 35 35 35 35 31 21 12 12 13 19 26 33 43 89 114 344 49 72 349 45 192 346 114 172 169 121 271 187 173 174 152 159 179 129 181 247 213 231 170 200 68 269 234 233 232 235 214 220 252 234
45 40 39 34 35 30 26 28 28 27 22 13 14 16 17 32 34 53 73 321 81 101 109 273 335 255 91 143 152 147 143 75 96 87 115 141 163 167 212 220 189 198 138 189 245 257 270 260 230 240 258 228 229 157
48 43 37 29 24 25 27 22 23 19 17 22 14 15 23 14 37 68 71 7 85 124 187 258 305 269 286 153 129 114 115 116 115 65 82 221 156 133 223 255 240 185 180 166 218 208 167 227 222 208 223 240 230 183
47 39 31 28 25 22 17 16 14 13 7 4 6 6 360 4 25 52 16 344 3 108 92 26 278 274 218 138 109 112 122 104 107 141 206 234 240 118 158 242 244 194 184 163 196 179 190 218 231 213 205 239 179 186
21 31 29 23 15 15 13 9 6 5 2 353 349 348 350 2 55 111 182 249 348 77 81 347 321 291 302 63 32 57 41 94 115 141 221 181 213 142 184 232 233 189 189 185 180 125 197 193 218 208 201 210 175 173
348 350 360 14 10 8 8 4 1 354 349 341 333 331 331 26 79 16 311 350 51 86 75 117 266 345 154 170 266 10 105 26 333 195 72 188 87 148 253 228 219 184 180 186 190 195 182 197 205 215 177 147 176 194
345 338 339 339 347 358 2 359 353 345 340 332 323 322 51 37 40 254 318 46 54 133 178 159 183 234 0 108 123 29 66 317 264 219 233 126 196 225 224 193 190 184 185 185 185 187 186 185 199 192 179 187 196 216
13 351 324 319 325 332 348 359 352 339 328 333 36 43 352 277 292 331 11 20 7 329 67 211 147 224 114 80 98 100 49 231 238 240 113 178 251 244 225 207 195 187 184 156 164 197 193 202 198 191 194 194 198 205
23 19 359 326 307 315 333 3 358 340 19 35 25 291 245 311 44 29 332 101 306 283 196 232 179 152 221 126 183 185 196 195 267 257 166 254 265 243 211 200 186 186 184 191 202 194 187 173 182 187 199 202 201 204
14 8 5 1 321 293 319 19 12 30 86 214 256 292 327 37 36 62 259 290 204 239 209 164 211 178 195 127 118 200 171 117 247 137 123 256 252 239 188 197 184 183 184 187 189 175 177 189 185 185 190 198 202 203
7 5 357 350 354 308 197 86 56 351 326 26 36 323 65 262 24 179 225 236 253 214 197 169 182 155 91 90 72 143 174 221 100 126 234 235 254 243 209 178 178 181 184 185 182 182 180 192 186 185 200 203 197 200
2 2 29 16 8 357 180 146 84 33 44 61 120 276 196 205 231 201 192 191 213 172 162 141 106 180 173 136 158 178 219 115 240 240 238 248 240 243 195 173 152 180 182 184 188 183 191 190 200 200 199 195 185 203
349 349 8 1 359 351 186 140 99 27 91 213 174 236 229 231 227 204 210 257 207 152 145 113 69 128 198 176 203 126 187 242 216 233 237 249 263 225 195 178 178 178 183 190 184 189 197 193 195 208 204 196 193 207
345 353 15 356 351 339 146 99 46 338 293 245 237 254 277 355 295 253 223 247 166 138 89 68 137 126 236 197 170 210 180 224 242 221 233 266 249 235 217 195 191 183 184 188 190 199 198 195 200 208 190 196 201 203
3 28 334 349 351 55 100 73 119 203 225 231 245 241 265 291 240 244 190 249 149 142 212 172 181 212 87 227 236 189 214 218 223 252 245 238 249 261 219 199 195 183 183 190 192 194 202 203 177 166 204 213 204 213
258 292 326 342 14 1 5 28 241 236 240 237 249 176 219 268 270 282 279 143 124 239 254 237 178 195 212 199 226 237 240 264 250 260 253 260 262 254 212 204 198 192 192 194 198 200 199 173 191 211 216 212 200 211
275 302 325 339 13 349 291 235 211 266 238 225 261 218 244 238 216 255 276 248 213 172 293 290 249 218 223 221 239 261 246 227 254 268 255 249 237 243 231 213 203 197 194 188 184 198 202 202 208 206 211 182 212 215
307 316 308 315 70 311 277 260 213 260 269 262 204 214 215 200 227 239 243 248 228 206 206 223 241 242 230 251 234 245 230 229 210 305 290 276 239 225 232 212 215 207 198 194 201 194 194 211 216 203 195 195 202 224
339 292 348 95 342 186 254 270 249 238 268 266 266 214 246 236 230 233 236 231 233 228 237 233 245 254 264 262 276 238 246 188 226 203 235 282 273 210 246 249 240 203 198 198 199 209 194 213 225 200 201 210 214 221
256 288 133 285 231 265 247 225 237 264 248 251 260 261 260 254 251 238 212 227 237 248 249 257 250 246 253 250 254 259 256 236 222 260 279 244 265 251 235 214 173 232 217 216 204 210 210 218 210 189 189 217 207 215
284 85 335 187 229 244 251 187 228 210 253 262 274 270 264 263 262 271 259 253 255 242 246 249 250 250 251 254 255 255 251 237 244 240 243 241 243 248 248 228 190 213 235 247 199 208 218 206 199 198 203 205 195 216
196 211 213 221 209 257 261 233 238 240 246 262 271 274 274 274 275 262 261 257 258 252 250 256 253 255 255 251 247 246 248 245 249 254 249 255 255 247 232 246 218 213 218 238 190 214 217 219 201 193 196 203 203 215
150 244 204 243 253 239 249 234 238 256 263 269 274 273 275 287 282 276 274 273 266 255 248 250 252 249 248 251 251 248 247 240 241 244 246 250 255 252 249 222 226 219 195 183 216 215 228 215 206 210 209 203 213 215
234 239 189 213 236 195 226 247 227 261 264 272 265 264 259 278 271 269 265 261 251 253 245 243 246 251 247 244 252 249 247 241 243 244 242 237 230 233 248 245 242 251 196 213 222 216 224 223 214 210 219 218 217 213
230 255 226 220 241 270 270 272 275 276 269 255 274 280 287 270 281 271 300 318 316 300 285 269 259 256 253 256 252 251 249 226 217 227 230 237 238 228 232 241 236 224 214 198 207 212 221 228 222 219 223 223 211 206
216 234 220 247 246 245 263 270 267 264 264 265 258 260 248 260 278 285 283 291 301 315 307 297 296 284 272 260 257 265 223 214 233 254 250 264 247 231 224 237 242 196 204 203 204 205 214 221 222 223 217 219 220 194
232 246 231 255 261 254 244 252 254 258 260 264 264 263 267 259 260 275 278 277 280 280 278 286 286 278 267 252 252 235 227 207 214 236 246 250 253 247 196 204 203 201 211 224 224 215 213 212 215 210 212 208 194 150
242 192 219 226 206 250 257 252 269 275 265 260 266 277 275 270 266 267 272 268 263 258 260 264 271 273 269 270 273 262 209 241 228 223 231 244 244 230 170 197 209 217 219 216 223 164 137 130 133 125 144 150 156 153
266 141 231 246 265 269 273 282 278 267 261 262 262 257 262 270 275 260 256 255 254 257 259 258 261 255 245 247 237 248 226 223 212 231 237 250 238 201 209 210 215 206 198 200 196 193 185 180 182 174 169 167 165 166
197 206 199 271 280 287 312 257 269 257 266 261 261 255 262 265 267 286 234 231 236 235 234 236 246 254 243 236 238 212 196 215 210 229 217 219 229 226 221 215 188 176 179 186 191 190 189 188 179 177 173 170 170 176
295 333 263 257 305 290 284 231 260 275 266 261 263 256 251 246 256 271 295 208 216 228 234 235 239 243 243 233 218 206 212 224 222 223 235 224 230 211 184 179 170 178 184 184 183 177 176 178 172 169 165 168 171 171